Back to catalog

DELTA 1 DEB

AliveSSO
NORAD 7146·DEBRIS·🇺🇸 United States

Launched Nov 6, 1973 from Vandenberg Space Force Base

Loading…

Next Passes (next 24 hours)

TLE

FreshSource: Space-Track

Epoch: Sep 14, 2026, 11:04 UTC

1 07146U 73086DL  26257.46164955  .00001007  00000-0  73874-2 0  9993
2 07146 101.7460 132.5133 0061456 358.0138 176.3650 12.44374500385001

Track DELTA 1 DEB in real time with AllMySat

Download on the App Store